Location: Drocourt
(49.0571°N, 1.7669°E)
Time: 16:35:43
(UTC+00:00)

Vanguard 3 - Pass Details

Date: 16 April 2024
Orbit: 509 x 3233 km, 33.3° (Epoch: 23 May)

Event Time Altitude Azimuth Distance (km) Brightness Sun altitude
Rises 08:26:10 0° 250° (WSW) 4,075 10.4 32.4°
Reaches altitude 10° 08:30:59 10° 226° (SW) 2,563 9.6 33.1°
Maximum altitude 08:33:36 13° 199° (SSW) 2,078 9.5 33.5°
Drops below altitude 10° 08:35:50 10° 170° (S) 2,088 9.8 33.8°
Sets 08:38:59 0° 141° (SE) 2,759 10.8 34.3°
